Location: Dittelbrunn
(50.0738°N, 10.2196°E)
Time: 16:55:45
(UTC+00:00)

Cosmos 1655 Rocket - Pass Details

Date: 18 September 2020
Orbit: 971 x 1005 km, 82.9° (Epoch: 30 October)

Event Time Altitude Azimuth Distance (km) Brightness Sun altitude
Rises 21:04:01 0° 348° (NNW) 3,686 7.9 -31.6°
Reaches altitude 10° 21:06:33 10° 345° (NNW) 2,738 7.1 -31.8°
Enters shadow 21:12:33 62° 275° (W) 1,096 4.3 -32.4°
